Watonga, OK

9:32 PM CDT on March 22, 2017 (GMT -0500)
Watonga

Weather History for KJWG - February, 2013

Change the Weather History Date:

Monday, February 25, 2013

  Actual Average Record
Temperature  
Mean Temperature 35 °F -  
Max Temperature 38 °F 58 °F 82 °F (1986)
Min Temperature 32 °F 33 °F 7 °F (1960)
Degree Days  
Heating Degree Days 30    
Moisture  
Dew Point 36 °F    
Average Humidity 100    
Maximum Humidity 100    
Minimum Humidity 100    
Precipitation  
Precipitation 1.86 in - - ()
Sea Level Pressure  
Sea Level Pressure 29.70 in    
Wind  
Wind Speed 17 mph (North)    
Max Wind Speed 26 mph    
Max Gust Speed 34 mph    
Visibility 3 miles    
Events Rain , Snow , Thunderstorm    
Averages and records for this station are not official NWS values.
T = Trace of Precipitation, MM = Missing Value Source: NWS Daily Summary

Daily Weather History Graph

Daily Weather History Graph

Search for Another Location

Airport or City:

Trip Planner

Search our weather history database for the weather conditions in past years. The results will help you decide how hot, cold, wet, or windy it might be!

Date:

Astronomy

Feb. 25, 2013 Rise Set
Actual Time 7:08 AM CST 6:25 PM CST
Civil Twilight 6:42 AM CST 6:51 PM CST
Nautical Twilight 6:13 AM CST 7:20 PM CST
Astronomical Twilight 5:43 AM CST 7:50 PM CST
Moon 6:37 PM CST (2/25) 6:40 AM CST (2/25)
Length of Visible Light 12h 08m
Length of Day
11h 16m
Full, 100% of the Moon is Illuminated
Feb 25
Full
Feb 25
Full
Mar 4
Last Quarter
Mar 11
New
Mar 19
First Quarter

Hourly Weather History & Observations

Time (CST) Temp. Windchill Dew Point Humidity Pressure Visibility Wind Dir Wind Speed Gust Speed Precip Events Conditions
12:15 AM 37.9 °F 30.0 °F 37.9 °F 100% 29.80 in 4.0 mi North 12.7 mph - 0.04 in Rain Rain
12:35 AM 37.8 °F 28.3 °F 37.8 °F 100% 29.78 in 3.0 mi North 17.3 mph 20.7 mph 0.11 in Rain Rain
12:55 AM 37.6 °F 28.8 °F 37.6 °F 100% 29.77 in 4.0 mi North 15.0 mph - 0.16 in Rain Rain
1:15 AM 37.4 °F 27.2 °F 37.4 °F 100% 29.76 in 5.0 mi North 19.6 mph - 0.02 in Rain Light Rain
1:35 AM 37.4 °F 30.3 °F 37.4 °F 100% 29.81 in 4.0 mi NW 10.4 mph - 0.03 in Rain , Thunderstorm Light Thunderstorms and Rain
1:55 AM 37.8 °F 31.8 °F 37.8 °F 100% 29.80 in 3.0 mi North 8.1 mph - 0.12 in Rain , Thunderstorm Rain
2:15 AM 37.9 °F 33.5 °F 37.9 °F 100% 29.82 in 3.0 mi NNW 5.8 mph - 0.07 in Rain Heavy Rain
2:35 AM 37.8 °F 27.7 °F 37.8 °F 100% 29.73 in 2.5 mi NNE 19.6 mph - 0.20 in Rain Rain
2:55 AM 37.4 °F 26.9 °F 37.4 °F 100% 29.70 in 4.0 mi NNE 20.7 mph - 0.25 in Rain , Thunderstorm Rain
3:15 AM 37.0 °F 27.4 °F 37.0 °F 100% 29.72 in 3.0 mi North 17.3 mph - 0.01 in Rain Light Rain
3:35 AM 37.2 °F 28.7 °F 37.2 °F 100% 29.72 in 3.0 mi North 13.8 mph 18.4 mph 0.03 in Rain , Thunderstorm Rain
3:55 AM 37.8 °F 29.4 °F 37.8 °F 100% 29.70 in 3.0 mi North 13.8 mph - 0.07 in Rain , Thunderstorm Rain
4:15 AM 37.4 °F 28.5 °F 37.4 °F 100% 29.71 in 2.5 mi North 15.0 mph - 0.07 in Rain , Thunderstorm Thunderstorms and Rain
4:35 AM 37.9 °F 29.6 °F 37.9 °F 100% 29.72 in 2.0 mi North 13.8 mph 25.3 mph 0.17 in Rain , Thunderstorm Rain
4:55 AM 38.3 °F 28.7 °F 38.3 °F 100% 29.71 in 2.5 mi North 18.4 mph 21.9 mph 0.28 in Rain , Thunderstorm Heavy Thunderstorms and Rain
5:15 AM 37.4 °F 27.2 °F 37.4 °F 100% 29.70 in 4.0 mi North 19.6 mph - 0.08 in Rain , Thunderstorm Light Thunderstorms and Rain
5:35 AM 37.4 °F 26.6 °F 37.4 °F 100% 29.67 in 3.0 mi NNE 21.9 mph 28.8 mph 0.19 in Rain Light Rain
5:55 AM 37.4 °F 25.9 °F 37.4 °F 100% 29.68 in 4.0 mi NNE 25.3 mph 32.2 mph 0.27 in Rain Light Rain
6:15 AM 37.4 °F 27.5 °F 37.4 °F 100% 29.72 in 4.0 mi NNE 18.4 mph 27.6 mph 0.07 in Rain , Thunderstorm Thunderstorms and Rain
6:35 AM 37.4 °F 27.5 °F 37.4 °F 100% 29.73 in 4.0 mi NE 18.4 mph 23.0 mph 0.17 in Rain Light Rain
6:55 AM 37.0 °F 25.9 °F 37.0 °F 100% 29.67 in 1.5 mi NNE 23.0 mph 34.5 mph 0.32 in Rain Rain
7:15 AM 37.0 °F 25.9 °F 37.0 °F 100% 29.68 in 4.0 mi NNE 23.0 mph 34.5 mph 0.03 in Rain Rain
7:35 AM 36.7 °F 25.1 °F 36.7 °F 100% 29.67 in 4.0 mi NNE 24.2 mph 31.1 mph 0.05 in Rain Light Rain
7:55 AM 36.5 °F 25.4 °F 36.5 °F 100% 29.68 in 4.0 mi NNE 21.9 mph 27.6 mph 0.07 in Rain Rain
8:15 AM 35.8 °F 24.2 °F 35.8 °F 100% 29.68 in 5.0 mi NNE 23.0 mph 28.8 mph 0.02 in Rain Light Rain
8:35 AM 34.9 °F 22.2 °F 34.9 °F 100% 29.68 in 4.0 mi NNE 26.5 mph 33.4 mph 0.04 in   Overcast
8:55 AM 34.9 °F 22.7 °F 34.9 °F 100% 29.68 in 3.0 mi NNE 24.2 mph 32.2 mph 0.04 in   Overcast
9:15 AM 34.9 °F 23.3 °F 34.9 °F 100% 29.67 in 2.5 mi North 21.9 mph 31.1 mph 0.01 in   Overcast
9:35 AM 34.2 °F 22.1 °F 34.2 °F 100% 29.67 in 1.5 mi North 23.0 mph 27.6 mph 0.05 in   Overcast
9:55 AM 34.0 °F 22.7 °F 34.0 °F 100% 29.69 in 2.0 mi NNE 19.6 mph - 0.08 in Snow Light Snow
10:15 AM 33.8 °F 22.5 °F 33.8 °F 100% 29.68 in 1.8 mi NNE 19.6 mph 24.2 mph 0.03 in Snow Light Snow
10:35 AM 33.8 °F 22.5 °F 33.8 °F 100% 29.66 in 1.8 mi NNE 19.6 mph - 0.06 in   Overcast
10:55 AM 33.8 °F 21.3 °F 33.8 °F 100% 29.65 in 1.8 mi NNE 24.2 mph 28.8 mph 0.09 in Snow Light Snow
11:15 AM 33.8 °F 22.2 °F 33.8 °F 100% 29.65 in 1.2 mi North 20.7 mph 26.5 mph 0.01 in Snow Light Snow
11:35 AM 33.8 °F 22.8 °F 33.8 °F 100% 29.67 in 2.0 mi NNE 18.4 mph 26.5 mph 0.02 in Snow Light Snow
11:55 AM 33.4 °F 21.1 °F 33.4 °F 100% 29.66 in 1.2 mi North 23.0 mph 26.5 mph 0.03 in Snow Light Snow
12:15 PM 33.4 °F 21.7 °F 33.4 °F 100% 29.65 in 0.5 mi North 20.7 mph - 0.02 in Snow Snow
12:35 PM - - - N/A% - - North - - N/A   Unknown
12:55 PM - - - N/A% - - North - - N/A   Unknown
1:15 PM - - - N/A% - - North - - N/A   Unknown
1:35 PM - - - N/A% - - North - - N/A   Unknown
1:55 PM 32.9 °F 20.7 °F 32.9 °F 100% 29.58 in - North 21.9 mph 27.6 mph 0.05 in   Unknown
2:15 PM 32.9 °F 20.7 °F 32.9 °F 100% 29.57 in 0.2 mi North 21.9 mph - 0.01 in Snow Snow
2:35 PM - - - N/A% - - North - - N/A   Unknown